Torna al catalogo

STARLINK-4545

AttivoComunicazioniVLEO
NORAD 53421·PAYLOAD·🇺🇸 United States

Lanciato Aug 10, 2022 da Cape Canaveral Space Force Station

Loading…

Prossimi Passaggi (prossime 24 ore)

TLE

AggiornatoSource: CelesTrak SupGP

Epoca: Sep 14, 2026, 20:50 UTC

1 53421C 22097AK  26257.86854167 -.00040451  00000+0 -13011-2 0  2572
2 53421  53.1596 333.0545 0001149  74.5485 309.0212 15.31715681    13

Traccia STARLINK-4545 in tempo reale con AllMySat

Download on the App Store